Beaver, WV

8:42 PM EST on January 23, 2017 (GMT -0500)
Raleigh County Memorial

Weather History for KBKW - December, 2012

Change the Weather History Date:

Saturday, December 8, 2012

  Actual Average Record
Temperature  
Mean Temperature 58 °F 36 °F  
Max Temperature 64 °F 44 °F 74 °F (1916)
Min Temperature 51 °F 28 °F -1 °F (1954)
Degree Days  
Heating Degree Days 7 29  
Month to date heating degree days 106 223  
Since 1 July heating degree days 1360 1363  
Cooling Degree Days 0 0  
Month to date cooling degree days 0 0  
Year to date cooling degree days 761 557  
Growing Degree Days 8 (Base 50)    
Moisture  
Dew Point 48 °F    
Average Humidity 77    
Maximum Humidity 93    
Minimum Humidity 60    
Precipitation  
Precipitation 0.09 in 0.10 in 1.39 in (1998)
Month to date precipitation 0.19 0.79  
Year to date precipitation 41.37 38.98  
Snow  
Snow 0.00 in - - ()
Month to date snowfall 0.0  
Since 1 September snowfall 22.9  
Snow Depth 0.00 in    
Sea Level Pressure  
Sea Level Pressure 29.96 in    
Wind  
Wind Speed 5 mph (WSW)    
Max Wind Speed 16 mph    
Max Gust Speed 23 mph    
Visibility 8 miles    
Events Fog , Rain    
T = Trace of Precipitation, MM = Missing Value Source: NWS Daily Summary

Daily Weather History Graph

Daily Weather History Graph

Search for Another Location

Airport or City:

Trip Planner

Search our weather history database for the weather conditions in past years. The results will help you decide how hot, cold, wet, or windy it might be!

Date:

Astronomy

Dec. 08, 2012 Rise Set
Actual Time 7:27 AM EST 5:05 PM EST
Civil Twilight 6:58 AM EST 5:34 PM EST
Nautical Twilight 6:25 AM EST 6:07 PM EST
Astronomical Twilight 5:53 AM EST 6:39 PM EST
Moon 1:55 AM EST (12/8) 1:30 PM EST (12/8)
Length of Visible Light 10h 36m
Length of Day
9h 37m
Waning Crescent, 28% of the Moon is Illuminated
Dec 8
Waning Crescent
Dec 13
New
Dec 20
First Quarter
Dec 28
Full
Jan 4
Last Quarter

Hourly Weather History & Observations

Time (EST) Temp. Dew Point Humidity Pressure Visibility Wind Dir Wind Speed Gust Speed Precip Events Conditions
12:51 AM 54.0 °F 44.1 °F 69% 29.91 in 10.0 mi SW 6.9 mph - N/A   Overcast
1:46 AM 55.4 °F 44.6 °F 67% 29.95 in 10.0 mi SW 5.8 mph - N/A   Overcast
1:51 AM 54.0 °F 44.1 °F 69% 29.91 in 10.0 mi SW 6.9 mph - N/A   Overcast
3:51 AM 54.0 °F 45.0 °F 72% 29.91 in 10.0 mi SW 6.9 mph - N/A   Overcast
4:51 AM 53.1 °F 46.0 °F 77% 29.91 in 10.0 mi WSW 4.6 mph - N/A   Overcast
5:51 AM 53.1 °F 46.0 °F 77% 29.92 in 10.0 mi SW 4.6 mph - N/A   Overcast
6:51 AM 53.1 °F 46.0 °F 77% 29.94 in 10.0 mi Calm Calm - N/A   Overcast
7:51 AM 52.0 °F 46.0 °F 80% 29.96 in 10.0 mi SW 4.6 mph - N/A   Overcast
8:22 AM 51.8 °F 46.4 °F 82% 29.98 in 10.0 mi Calm Calm - N/A   Overcast
8:51 AM 52.0 °F 46.9 °F 83% 29.97 in 10.0 mi WSW 4.6 mph - N/A   Overcast
9:03 AM 53.6 °F 46.4 °F 77% 29.98 in 10.0 mi SSW 4.6 mph - N/A   Overcast
9:12 AM 53.6 °F 46.4 °F 77% 29.98 in 10.0 mi SW 5.8 mph - N/A   Overcast
9:51 AM 55.9 °F 48.0 °F 75% 29.96 in 10.0 mi SW 8.1 mph - N/A   Mostly Cloudy
10:51 AM 57.0 °F 48.0 °F 72% 29.96 in 10.0 mi WSW 6.9 mph - N/A   Mostly Cloudy
11:34 AM 59.0 °F 48.2 °F 67% 29.96 in 10.0 mi SSW 9.2 mph 16.1 mph N/A   Overcast
11:51 AM 61.0 °F 48.0 °F 62% 29.92 in 10.0 mi SW 9.2 mph - N/A   Overcast
12:05 PM 60.8 °F 46.4 °F 59% 29.96 in 10.0 mi WSW 10.4 mph 17.3 mph N/A   Overcast
12:33 PM 59.0 °F 46.4 °F 63% 29.95 in 10.0 mi West 10.4 mph - N/A   Overcast
12:51 PM 59.0 °F 46.9 °F 64% 29.91 in 10.0 mi SW 6.9 mph - N/A   Overcast
1:51 PM 61.0 °F 46.0 °F 58% 29.89 in 10.0 mi WSW 8.1 mph - N/A   Mostly Cloudy
2:51 PM 61.0 °F 46.0 °F 58% 29.89 in 10.0 mi SSW 10.4 mph - N/A   Overcast
3:51 PM 61.0 °F 46.9 °F 60% 29.90 in 10.0 mi WSW 10.4 mph - N/A   Overcast
4:51 PM 57.0 °F 50.0 °F 77% 29.94 in 10.0 mi North 4.6 mph - 0.01 in Rain Light Rain
5:51 PM 55.0 °F 51.1 °F 86% 29.97 in 10.0 mi Calm Calm - 0.00 in   Overcast
6:51 PM 54.0 °F 51.1 °F 90% 29.98 in 10.0 mi NNW 4.6 mph - N/A   Overcast
7:17 PM 53.6 °F 51.8 °F 94% 30.01 in 10.0 mi Calm Calm - N/A   Overcast
7:51 PM 54.0 °F 51.1 °F 90% 29.99 in 10.0 mi Calm Calm - N/A   Overcast
8:51 PM 53.1 °F 51.1 °F 93% 30.00 in 10.0 mi Calm Calm - N/A   Overcast
9:23 PM 53.6 °F 51.8 °F 94% 30.02 in 2.0 mi NNW 5.8 mph - N/A   Overcast
9:25 PM 53.6 °F 51.8 °F 94% 30.03 in 0.8 mi NW 6.9 mph - 0.00 in Rain Light Rain
9:30 PM 53.6 °F 51.8 °F 94% 30.02 in 0.2 mi Calm Calm - 0.00 in Fog , Rain Light Rain
9:40 PM 53.6 °F 51.8 °F 94% 30.03 in 0.5 mi NNW 4.6 mph - 0.01 in Fog , Rain Heavy Rain
9:51 PM 53.1 °F 52.0 °F 96% 30.00 in 2.5 mi Calm Calm - 0.06 in Rain Rain
9:58 PM 53.6 °F 51.8 °F 94% 30.03 in 5.0 mi Calm Calm - 0.00 in Rain Light Rain
10:06 PM 53.6 °F 51.8 °F 94% 30.03 in 5.0 mi Calm Calm - 0.00 in Rain Light Rain
10:51 PM 52.0 °F 51.1 °F 97% 30.01 in 7.0 mi Calm Calm - 0.02 in   Overcast
10:59 PM 51.8 °F 51.8 °F 100% 30.02 in 6.0 mi East 3.5 mph - N/A   Overcast
11:51 PM 52.0 °F 50.0 °F 93% 29.99 in 10.0 mi ESE 3.5 mph - 0.00 in   Mostly Cloudy